This demonstration page uses our WeatherBlox Daily Observations layout. Learn more.

Left ArrowRight Arrow

39.51506, -84.39828

Hourly Observations for April 27, 2018

Temp ( °F °C ) Dew Point ( °F °C ) Humidity (%) Winds ( mph kmh ) Pressure ( in mb ) Visibility ( mi km ) Precip ( " mm )
12:15 am 00:15 Clear 46 8 42 5.7 86 86 Calm 29.85 1011 10 16 0.00 0.00
12:35 am 00:35 Clear 46 7.6 42 5.3 86 86 Calm 29.85 1011 10 16 0.00 0.00
12:55 am 00:55 Clear 45 7.1 41 5.1 87 87 Calm 29.85 1011 10 16 0.00 0.00
1:15 am 01:15 Clear 44 6.8 41 4.9 88 88 Calm 29.85 1011 10 16 0.00 0.00
1:35 am 01:35 Clear 44 6.9 41 5 88 88 Calm 29.85 1011 10 16 0.00 0.00
1:55 am 01:55 Clear 43 6.3 40 4.4 88 88 Calm 29.85 1011 10 16 0.00 0.00
2:15 am 02:15 Clear 44 6.4 40 4.6 88 88 Calm 29.83 1010 10 16 0.00 0.00
2:35 am 02:35 Clear 42 5.3 40 4.3 93 93 Calm 29.83 1010 10 16 0.00 0.00
2:55 am 02:55 Clear 43 6 41 4.8 92 92 Calm 29.83 1010 10 16 0.00 0.00
3:15 am 03:15 Clear 43 6.3 41 4.8 90 90 Calm 29.83 1010 10 16 0.00 0.00
3:35 am 03:35 Clear 43 6.1 41 4.9 92 92 Calm 29.83 1010 10 16 0.00 0.00
3:55 am 03:55 Clear 43 5.9 41 5.1 95 95 Calm 29.83 1010 10 16 0.00 0.00
4:15 am 04:15 Clear 41 5.2 40 4.4 95 95 Calm 29.83 1010 10 16 0.00 0.00
4:35 am 04:35 Clear 42 5.5 40 4.5 93 93 Calm 29.83 1010 10 16 0.00 0.00
4:55 am 04:55 Clear 42 5.3 40 4.4 94 94 Calm 29.83 1010 10 16 0.00 0.00
5:15 am 05:15 Clear 42 5.4 40 4.3 93 93 Calm 29.83 1010 10 16 0.00 0.00
5:35 am 05:35 Clear 41 4.8 40 4.2 96 96 Calm 29.83 1010 10 16 0.00 0.00
5:55 am 05:55 Clear 40 4.7 40 4.3 97 97 Calm 29.83 1010 10 16 0.00 0.00
6:15 am 06:15 Clear 41 4.8 40 4.5 98 98 Calm 29.83 1010 7 11 0.00 0.00
6:35 am 06:35 Clear 40 4.7 40 4.6 99 99 Calm 29.83 1010 7 11 0.00 0.00
6:55 am 06:55 Sunny with Mist and Fog 40 4.6 40 4.4 99 99 Calm 29.83 1010 5 8 0.00 0.00
7:15 am 07:15 Sunny with Mist and Fog 40 4.6 40 4.5 99 99 Calm 29.83 1010 3 5 0.00 0.00
7:35 am 07:35 Sunny 41 4.9 40 4.7 99 99 Calm 29.83 1010 10 16 0.00 0.00
7:55 am 07:55 Sunny 42 5.4 41 5 97 97 Calm 29.83 1010 10 16 0.00 0.00
8:15 am 08:15 Sunny 44 6.7 43 6 95 95 Calm 29.83 1010 10 16 0.00 0.00
8:35 am 08:35 Sunny 48 8.8 42 5.8 82 82 SSW 5 7 29.83 1010 10 16 0.00 0.00
8:55 am 08:55 Sunny 51 10.4 42 5.8 73 73 Calm 29.83 1010 10 16 0.00 0.00
9:15 am 09:15 Sunny 53 11.6 42 5.6 67 67 Calm 29.83 1010 10 16 0.00 0.00
9:35 am 09:35 Sunny 55 12.6 43 6.1 65 65 SSW 5 7 29.83 1010 10 16 0.00 0.00
9:55 am 09:55 Sunny 57 13.7 44 6.9 64 64 S 6 9 29.80 1009 10 16 0.00 0.00
10:15 am 10:15 Sunny 60 15.3 43 6.1 54 54 SSW 7 11 29.80 1009 10 16 0.00 0.00
10:35 am 10:35 Sunny 61 16.3 40 4.5 46 46 SSW 9 15 29.80 1009 10 16 0.00 0.00
10:55 am 10:55 Sunny 62 16.9 42 5.3 47 47 SSW 10 17 29.80 1009 10 16 0.00 0.00
11:15 am 11:15 Sunny 64 17.6 40 4.7 43 43 SSW 8 13 29.80 1009 10 16 0.00 0.00
11:35 am 11:35 Sunny 65 18.5 38 3.1 36 36 SW 10 17 29.80 1009 10 16 0.00 0.00
11:55 am 11:55 Sunny 66 19 35 1.9 32 32 SSW 12 19 29.77 1008 10 16 0.00 0.00
12:15 pm 12:15 Sunny 67 19.2 37 2.5 33 33 SW 14 22 29.77 1008 10 16 0.00 0.00
12:35 pm 12:35 Sunny 68 20 38 3.5 34 34 SW 12 19 29.77 1008 10 16 0.00 0.00
12:55 pm 12:55 Sunny 69 20.3 37 2.8 32 32 SW 10 17 29.77 1008 10 16 0.00 0.00
1:15 pm 13:15 Sunny 70 21 40 4.2 33 33 SW 14 22 29.74 1007 10 16 0.00 0.00
1:35 pm 13:35 Sunny 70 21.3 38 3.4 31 31 SSW 13 20 29.74 1007 10 16 0.00 0.00
1:55 pm 13:55 Sunny 71 21.6 37 2.8 29 29 SW 21 33 29.74 1007 10 16 0.00 0.00
2:15 pm 14:15 Cloudy 68 20.1 35 1.5 29 29 W 18 30 29.74 1007 10 16 0.00 0.00
2:35 pm 14:35 Mostly Cloudy 69 20.5 37 2.8 31 31 WSW 20 31 29.74 1007 10 16 0.00 0.00
2:55 pm 14:55 Partly Cloudy 70 21.1 40 4.6 34 34 W 16 26 29.74 1007 10 16 0.00 0.00
3:15 pm 15:15 Sunny 69 20.8 43 6.2 39 39 W 18 30 29.74 1007 10 16 0.00 0.00
3:35 pm 15:35 Partly Cloudy 69 20.7 45 7.2 42 42 W 21 33 29.74 1007 10 16 0.00 0.00
3:55 pm 15:55 Partly Cloudy 68 20.1 45 7.1 43 43 WNW 17 28 29.74 1007 10 16 0.00 0.00
4:15 pm 16:15 Sunny 68 20 42 5.5 39 39 W 16 26 29.74 1007 10 16 0.00 0.00
4:35 pm 16:35 Sunny 68 19.9 39 3.7 34 34 W 16 26 29.74 1007 10 16 0.00 0.00
4:55 pm 16:55 Sunny 68 19.9 37 3 33 33 W 22 35 29.74 1007 10 16 0.00 0.00
5:15 pm 17:15 Sunny 67 19.7 37 3 33 33 WNW 22 35 29.74 1007 10 16 0.00 0.00
5:35 pm 17:35 Sunny 67 19.3 35 1.8 31 31 W 16 26 29.77 1008 10 16 0.00 0.00
5:55 pm 17:55 Sunny 67 19.2 34 1.1 30 30 W 15 24 29.77 1008 10 16 0.00 0.00
6:15 pm 18:15 Sunny 66 18.8 32 -0.2 28 28 W 20 31 29.77 1008 10 16 0.00 0.00
6:35 pm 18:35 Sunny 65 18.6 29 -1.8 25 25 WSW 20 31 29.77 1008 10 16 0.00 0.00
6:55 pm 18:55 Sunny 65 18.2 30 -1.2 27 27 WNW 12 19 29.77 1008 10 16 0.00 0.00
7:15 pm 19:15 Sunny 64 17.7 31 -0.4 30 30 WNW 10 17 29.77 1008 10 16 0.00 0.00
7:35 pm 19:35 Sunny 63 17.1 31 -0.3 31 31 W 10 17 29.77 1008 10 16 0.00 0.00
7:55 pm 19:55 Sunny 62 16.4 32 0 33 33 W 8 13 29.77 1008 10 16 0.00 0.00
8:15 pm 20:15 Sunny 59 14.8 32 0.2 37 37 WNW 9 15 29.80 1009 10 16 0.00 0.00
8:35 pm 20:35 Clear 58 14.6 29 -1.8 33 33 NW 7 11 29.80 1009 10 16 0.00 0.00
8:55 pm 20:55 Clear 57 13.9 27 -2.7 32 32 NW 6 9 29.80 1009 10 16 0.00 0.00
9:15 pm 21:15 Clear 56 13.6 28 -2.2 34 34 NW 6 9 29.80 1009 10 16 0.00 0.00
9:35 pm 21:35 Clear 53 11.4 32 0.1 46 46 NW 5 7 29.83 1010 10 16 0.00 0.00
9:55 pm 21:55 Clear 47 8.5 36 2.2 65 65 Calm 29.83 1010 10 16 0.00 0.00
10:15 pm 22:15 Clear 49 9.5 33 0.7 55 55 NNE 5 7 29.83 1010 10 16 0.00 0.00
10:35 pm 22:35 Clear 48 9.1 37 2.5 64 64 N 3 6 29.83 1010 10 16 0.00 0.00
10:55 pm 22:55 Clear 46 7.9 36 2.4 69 69 Calm 29.83 1010 10 16 0.00 0.00
11:15 pm 23:15 Clear 45 7 38 3.2 77 77 Calm 29.83 1010 10 16 0.00 0.00
11:35 pm 23:35 Clear 44 6.7 37 2.9 77 77 Calm 29.83 1010 10 16 0.00 0.00
11:55 pm 23:55 Clear 44 6.8 38 3.3 79 79 Calm 29.83 1010 10 16 0.00 0.00

Powered by AerisWeather